Regional Weather Roundup
Issued by NWS

Home | Current Version | Previous Version | Text Only | Print | Product List | Glossary On
Versions: 1 2 3 4 5 6 7 8 9 10 11 12 13 14 15 16 17 18 19 20 21 22 23 24 25 26 27 28 29 30 31 32 33 34 35 36 37 38 39 40 41 42 43 44 45 46 47 48 49 50
000
ASUS43 KTOP 201808
RWRKS

WEATHER ROUNDUP FOR KANSAS
NATIONAL WEATHER SERVICE GOODLAND KS
100 PM CDT MON OCT 20 2014

NOTE:  "FAIR" INDICATES FEW OR NO CLOUDS BELOW 12,000 FEET WITH NO
SIGNIFICANT WEATHER AND/OR OBSTRUCTIONS TO VISIBILITY.

KSZ001>006-013>018-027>032-041>047-201900-
NORTHWEST KANSAS

CITY           SKY/WX    TMP DP  RH WIND       PRES   REMARKS
GOODLAND       SUNNY     73  43  33 S15G23    30.17F
6HR MIN TEMP:  39; 6HR MAX TEMP:  73;

HAYS           SUNNY     72  50  46 E3        30.12F
HILL CITY      SUNNY     74  46  36 SE7       30.13F
6HR MIN TEMP:  40; 6HR MAX TEMP:  74;

RUSSELL        SUNNY     74  51  44 N5        30.10F
6HR MIN TEMP:  44; 6HR MAX TEMP:  74;

$$

KSZ061>065-074>080-084>089-201900-
SOUTHWEST KANSAS

CITY           SKY/WX    TMP DP  RH WIND       PRES   REMARKS
DODGE CITY     SUNNY     71  52  50 NE13      30.13F
6HR MIN TEMP:  49; 6HR MAX TEMP:  72;

ELKHART          N/A     70  52  53 NE14        N/A
GARDEN CITY    SUNNY     71  51  49 E14       30.13F
6HR MIN TEMP:  45; 6HR MAX TEMP:  71;

GREAT BEND     SUNNY     73  52  46 NE7       30.11S
LIBERAL        SUNNY     72  55  56 NE12      30.14S
PRATT          SUNNY     70  52  52 E7        30.11F
$$

KSZ066>073-081>083-090>101-201900-
SOUTHEAST KANSAS

CITY           SKY/WX    TMP DP  RH WIND       PRES   REMARKS
CHANUTE        SUNNY     74  57  55 N5        30.06F
6HR MIN TEMP:  55; 6HR MAX TEMP:  74;

COFFEYVILLE    SUNNY     73  58  59 CALM      30.05F
6HR MIN TEMP:  57; 6HR MAX TEMP:  73;

HUTCHINSON     SUNNY     77  53  43 E8        30.08F
6HR MIN TEMP:  45; 6HR MAX TEMP:  78;

MEDICINE LODGE   N/A     77  57  50 E9        30.06F
NEWTON         SUNNY     75  52  43 NE7       30.10F
PARSONS        SUNNY     74  59  59 N9        30.07F
6HR MIN TEMP:  56; 6HR MAX TEMP:  75;

WICHITA INTL   SUNNY     77  54  44 E9        30.07F
6HR MIN TEMP:  53; 6HR MAX TEMP:  77;

WICHITA JABRA  SUNNY     75  54  47 NE5       30.07F
6HR MIN TEMP:  50; 6HR MAX TEMP:  75;

WICHITA MCCONL SUNNY     74  55  50 E7        30.07F
WINFIELD       SUNNY     75  60  59 NE9       30.07F
6HR MIN TEMP:  54; 6HR MAX TEMP:  75;

$$

KSZ007>012-019>026-033>040-048>060-102>105-201900-
NORTHEAST KANSAS

CITY           SKY/WX    TMP DP  RH WIND       PRES   REMARKS
CONCORDIA      SUNNY     72  48  42 NE7       30.10F
6HR MIN TEMP:  47; 6HR MAX TEMP:  72;

EMPORIA        SUNNY     74  54  49 N8        30.06F
6HR MIN TEMP:  48; 6HR MAX TEMP:  74;

LAWRENCE       SUNNY     71  49  45 VRB7      30.06F
6HR MIN TEMP:  41; 6HR MAX TEMP:  71;

MANHATTAN      SUNNY     73  52  47 VRB3      30.08F
6HR MIN TEMP:  41; 6HR MAX TEMP:  73;

MARYSVILLE     SUNNY     70  45  40 E6        30.09F
OLATHE IND     SUNNY     70  51  51 NE8       30.07F
6HR MIN TEMP:  48; 6HR MAX TEMP:  70;

OLATHE EXE     SUNNY     71  51  49 NE8       30.05F
6HR MIN TEMP:  52; 6HR MAX TEMP:  71;

SALINA         SUNNY     74  55  51 VRB3      30.09F
6HR MIN TEMP:  47; 6HR MAX TEMP:  74;

TOPEKA BILLARD SUNNY     71  53  52 N5        30.07F
6HR MIN TEMP:  45; 6HR MAX TEMP:  72;

TOPEKA FORBES  SUNNY     71  53  52 VRB6      30.07F
6HR MIN TEMP:  44; 6HR MAX TEMP:  71;

$$



USA.gov is the U.S. government's official web portal to all federal, state and local government web resources and services.